This is the latest recevied weather packets stored in our database for station/object W4MJZ-1. If no packets are shown the sender has not sent any weather packets the latest 10 day(s).
| Time | Temp. | Humidity | Pressure | Rain* | Wind** | Luminosity | Snow |
|---|---|---|---|---|---|---|---|
| 1777748540 | 26.67° C | 28% | 1022.6 hPa | 0 mm | - | - | - |
| 1777748239 | 27.22° C | 27% | 1022.6 hPa | 0 mm | - | - | - |
| 1777747939 | 27.78° C | 27% | 1022.6 hPa | 0 mm | - | - | - |
| 1777747864 | 26.67° C | 28% | 1022.6 hPa | 0 mm | - | - | - |
| 1777747639 | 26.67° C | 28% | 1022.6 hPa | 0 mm | - | - | - |
| 1777747339 | 27.22° C | 28% | 1022.6 hPa | 0 mm | - | - | - |
| 1777747042 | 28.33° C | 26% | 1022.9 hPa | 0 mm | - | - | - |
| 1777746739 | 27.78° C | 27% | 1022.9 hPa | 0 mm | - | - | - |
| 1777746439 | 27.78° C | 28% | 1022.9 hPa | 0 mm | - | - | - |
| 1777746139 | 27.78° C | 28% | 1022.9 hPa | 0 mm | - | - | - |
| 1777745839 | 27.78° C | 28% | 1023.3 hPa | 0 mm | - | - | - |
| 1777745539 | 27.78° C | 28% | 1023.3 hPa | 0 mm | - | - | - |
| 1777745240 | 27.78° C | 28% | 1022.9 hPa | 0 mm | - | - | - |
| 1777744939 | 27.22° C | 29% | 1023.3 hPa | 0 mm | - | - | - |
| 1777744639 | 27.22° C | 29% | 1023.3 hPa | 0 mm | - | - | - |
| 1777744339 | 27.78° C | 29% | 1023.3 hPa | 0 mm | - | - | - |
| 1777744039 | 27.22° C | 30% | 1023.3 hPa | 0 mm | - | - | - |
| 1777743739 | 26.67° C | 31% | 1023.3 hPa | 0 mm | - | - | - |
| 1777743440 | 26.67° C | 30% | 1023.3 hPa | 0 mm | - | - | - |
| 1777743139 | 26.67° C | 31% | 1023.3 hPa | 0 mm | - | - | - |
| 1777742839 | 26.67° C | 31% | 1023.3 hPa | 0 mm | - | - | - |
| 1777742723 | 26.67° C | 31% | 1023.7 hPa | 0 mm | - | - | - |
| 1777742539 | 26.67° C | 31% | 1023.7 hPa | 0 mm | - | - | - |
| 1777742425 | 26.67° C | 31% | 1023.3 hPa | 0 mm | - | - | - |
| 1777742239 | 26.67° C | 31% | 1023.3 hPa | 0 mm | - | - | - |
* Rain latest hour (hover to see other rain measurements)
** Current wind speed in m/s (hover to see current wind gust speed)